Regional Weather Roundup
Issued by NWS

Home | Current Version | Previous Version | Graphics & Text | Print | Product List | Glossary On
Versions: 1 2 3 4 5 6 7 8 9 10 11 12 13 14 15 16 17 18 19 20 21 22 23 24 25 26 27 28 29 30 31 32 33 34 35 36 37 38 39 40 41 42 43 44 45 46 47 48 49 50
000
ASUS43 KLOT 250700
RWRIL

ILLINOIS REGIONAL WEATHER ROUNDUP
NATIONAL WEATHER SERVICE CHICAGO/ROMEOVILLE IL
200 AM CDT SAT OCT 25 2014

NOTE: "FAIR" INDICATES FEW OR NO CLOUDS BELOW 12,000 FEET WITH NO
SIGNIFICANT WEATHER AND/OR OBSTRUCTIONS TO VISIBILITY.

* THESE STATIONS ARE NOT UNDER NWS QUALITY CONTROL. THEY ALSO MAY NOT
  REPORT WEATHER SUCH AS PRECIPITATION OR FOG.

ILZ001-002-007-009-015-016-024-250800-
NORTHWEST ILLINOIS

CITY           SKY/WX    TMP DP  RH WIND       PRES   REMARKS
MOLINE         FOG       51  49  92 CALM      29.93F VSB<1/4
STERLING*      CLOUDY    54  48  82 W7        29.93S
$$

ILZ003-004-008-010-011-017-018-250800-
NORTH CENTRAL ILLINOIS

CITY           SKY/WX    TMP DP  RH WIND       PRES   REMARKS
ROCKFORD       CLEAR     54  51  90 W3        29.93S
$$

ILZ005-006-012>014-019>023-250800-
NORTHEAST ILLINOIS

CITY           SKY/WX    TMP DP  RH WIND       PRES   REMARKS
CHICAGO-OHARE  PTCLDY    57  50  77 SW6       29.89F
CHICAGO-MIDWAY MOCLDY    59  52  77 SW7       29.90F
AURORA         PTCLDY    54  48  80 SW3       29.91F
WAUKEGAN       MOCLDY    53  48  83 SW5       29.87F
DUPAGE AIRPORT PTCLDY    55  49  80 SW8       29.90F
WHEELING       PTCLDY    57  49  74 S6        29.90F
NORTHERLY ISL    N/A     59  50  72 S5          N/A
$$

LMZ740>746-250800-
SOUTHERN LAKE MICHIGAN

STATION/POSITION SKY/WX   TEMP    WIND        PRES    VSBY  WAVE
                          AIR SEA DIR/SP/G                  HT/PER
                          (F)     (DEG/KT/KT) (MB)    (MI)  (FT/S)
SOUTHERN BUOY              57 54  200/ 12/ 14 1012.0F
WAUKEGAN HARBOR            59     240/  7/  9   N/A
HARRISON CRIB              62     220/ 11/ 16   N/A
BURNHAM HARBOR             60     210/  5/  9   N/A
CALUMET HARBOR             58     210/  4/  6 1011.9F
MICHIGAN CITY              58     170/  8/ 10   N/A
$$

ILZ025>027-034>036-040-047-049-050-058-095>099-250800-
WEST-CENTRAL ILLINOIS

CITY           SKY/WX    TMP DP  RH WIND       PRES   REMARKS
QUINCY         MOCLDY    59  57  93 W5        29.97R
$$

ILZ028>032-037-038-041>044-048-051>054-059>061-250800-
CENTRAL ILLINOIS

CITY           SKY/WX    TMP DP  RH WIND       PRES   REMARKS
DECATUR        CLOUDY    62  53  72 SW13      29.96S
PEORIA         CLOUDY    58  51  78 SW5       29.95S
SPRINGFIELD    PTCLDY    60  51  72 SW5       29.96S
TAYLORVILLE    NOT AVBL
$$

ILZ033-039-045-046-055>057-062-063-250800-
EAST-CENTRAL ILLINOIS

CITY           SKY/WX    TMP DP  RH WIND       PRES   REMARKS
CHAMPAIGN      MOCLDY    56  52  86 S8        29.95F
MATTOON        CLOUDY    60  52  74 S10       29.95F
$$

ILZ079-100>102-250800-
SOUTHWEST ILLINOIS

CITY           SKY/WX    TMP DP  RH WIND       PRES   REMARKS
BELLEVILLE     CLEAR     55  53  95 S5        29.98F
CAHOKIA*       CLEAR     61  56  83 S3        29.98F
$$

ILZ064>066-069>071-074>076-080>082-084>086-088>090-092>094-250800-
SOUTH-CENTRAL ILLINOIS

CITY           SKY/WX    TMP DP  RH WIND       PRES   REMARKS
CARBONDALE     MOCLDY    55  51  86 S3        30.02F
MT. VERNON     MOCLDY    54  50  87 CALM      30.02F
$$

ILZ067-068-072-073-078-083-087-091-250800-
SOUTHEAST ILLINOIS

CITY           SKY/WX    TMP DP  RH WIND       PRES   REMARKS
LAWRENCEVILLE  CLOUDY    53  51  93 S3        30.01F
$$

ABBREVIATIONS USED IN REMARKS
   TC - TEMPERATURE IN CELSIUS
  WCI - WIND CHILL INDEX
   HX - HEAT INDEX
  VSB - VISIBILITY
$$




USA.gov is the U.S. government's official web portal to all federal, state and local government web resources and services.